Kuiper-00031

operational
NORAD ID: 63744 Int'l Des: 2025-088 Owner: KUIP Country: US Constellation: kuiper
LEOCIRCULAR

Über Kuiper-00031

Beschreibung wird geladen...

Live-Position

3D-Globus wird geladen...

Nächste Überflüge

Höhenverlauf

Altitude vs Time

uPlot chart will show altitude changes over time

Zweizeiliger Elementsatz

1 63744U 25088W 26036.91670139 .00020285 00000-0 24689-2 0 9998
2 63744 51.8985 236.9853 0002836 64.5931 344.8623 14.83396759 5634
Epoch: 5. Feb. 2026 • Age: 18 hours

Aktueller Status

Höhe 621.9 km
Geschwindigkeit 7.55 km/s
Subsatellitenpunkt 45.31°N, 16.45°W
Startdatum 28. Apr. 2025
Alter 0.7 years
Typ internet

Technische Details

Klassifizierung Payload
Masse 490.00 kg
Trockenmasse 490.00 kg
Gesamtmasse 490.00 kg
Länge 1.80 m
Durchmesser 0.70 m
Spannweite 5.00 m
Form Box + 2 pan
Hersteller KUIP
Bus-Typ Kuiper
Phasenstatus In Orbit
Besitzer/Staat KUIP/US

Große Konstellationen

Loading constellations...